Regional Weather Roundup
Issued by NWS State College, PA

Home | Current Version | Previous Version | Graphics & Text | Print | Product List | Glossary On
Versions: 1 2 3 4 5 6 7 8 9 10 11 12 13 14 15 16 17 18 19 20 21 22 23 24 25 26 27 28 29 30 31 32 33 34 35 36 37 38 39 40 41 42 43 44 45 46 47 48 49 50
944
ASUS41 KCTP 181103
RWRCTP

REGIONAL WEATHER ROUNDUP
NATIONAL WEATHER SERVICE STATE COLLEGE PA
700 AM EDT WED OCT 18 2017

Note: "fair" indicates few or no clouds below 12,000 feet with no
significant weather and/or obstructions to visibility.

* = STATION THAT DOES NOT REPORT PRECIPITATION /E.G. RAIN...SNOW...ETC/
    THUNDER OR FOG.

PAZ002>004-007>009-013>016-020>023-029>032-181200-
WESTERN PENNSYLVANIA

CITY           SKY/WX    TMP DP  RH WIND       PRES   REMARKS
ERIE           CLEAR     50  39  66 S7        30.28R
MEADVILLE      CLEAR     45  39  79 S6        30.31R
FRANKLIN*      CLEAR     42  37  82 SW7       30.32R
NEW CASTLE     FAIR      38  38 100 CALM      30.33R
BEAVER COUNTY  CLEAR     43  39  87 CALM      30.33
BUTLER*        CLEAR    N/A N/A N/A CALM      30.34R
PITTSBURGH INT CLEAR     42  38  85 CALM      30.33R
PITTSBURGH     CLEAR     44  38  79 S7        30.33R
INDIANA*       CLEAR     37  37 100 CALM      30.37R
LATROBE        CLEAR     37  37 100 CALM      30.35R
WASHINGTON CO* CLEAR     38  37  97 CALM      30.37R
$$

PAZ004>006-010>012-017>019-024>028-033>037-041-042-045-046-049>053-181200-
CENTRAL PENNSYLVANIA

CITY           SKY/WX    TMP DP  RH WIND       PRES   REMARKS
BRADFORD       CLEAR     36  35  96 SE3       30.31R
DUBOIS         CLEAR     40  36  86 CALM      30.32R
CLEARFIELD     CLEAR     37  36  96 CALM      30.34R
JOHNSTOWN      CLEAR     43  35  73 SW8       30.34R
ALTOONA        CLEAR     44  37  76 W3        30.34R
STATE COLLEGE  CLEAR     43  37  81 CALM      30.33R
WILLIAMSPORT   CLOUDY    41  39  93 CALM      30.34R
SELINSGROVE    CLEAR     37  37 100 CALM      30.35R
FT INDIANTOWN  CLEAR     37  37 100 CALM      30.34R
CAPITAL CITY   CLEAR     40  36  86 W3        30.35R
HARRISBURG     CLEAR     43  41  93 CALM      30.34R
YORK           CLEAR     36  36 100 CALM      30.35R
$$

PAZ038>040-043-044-047-048-054-055-060>062-067>071-181200-
EASTERN PENNSYLVANIA

CITY           SKY/WX    TMP DP  RH WIND       PRES   REMARKS
SCRANTON       CLEAR     39  37  92 CALM      30.32R
MOUNT POCONO   CLEAR     43  37  79 NW6       30.30R
ALLENTOWN      CLEAR     40  35  83 CALM      30.33R
QUAKERTOWN*    SUNNY     37  36  93 CALM      30.34R
READING        CLEAR     41  41 100 CALM      30.33R
LANCASTER      CLEAR     39  38  96 CALM      30.35R
COATESVILLE    SUNNY     43  36  75 W5        30.35R
POTTSTOWN      CLEAR     38  37  97 CALM      30.35R
BLUE BELL      CLEAR     36  36 100 CALM      30.36R
DOYLESTOWN     CLEAR     43  38  82 SW3       30.33R
WILLOW GROVE   NOT AVBL
NORTH PHILA    CLEAR     44  40  85 CALM      30.35R
PHILADELPHIA   CLEAR     48  42  80 W5        30.35R
$$




USA.gov is the U.S. government's official web portal to all federal, state and local government web resources and services.